This is the latest recevied weather packets stored in our database for station/object W4NFM. If no packets are shown the sender has not sent any weather packets the latest 10 day(s).
| Time | Temp. | Humidity | Pressure | Rain* | Wind** | Luminosity | Snow |
|---|---|---|---|---|---|---|---|
| 1777244404 | 13.89° C | 92% | 1019.2 hPa | 0 mm | - | 12 W/m² | - |
| 1777244044 | 13.33° C | 92% | 1019.3 hPa | 0 mm | - | 19 W/m² | - |
| 1777241884 | 13.89° C | 90% | 1018.9 hPa | 0 mm | - | 41 W/m² | - |
| 1777241344 | 13.89° C | 89% | 1018.9 hPa | 0 mm | - | 59 W/m² | - |
| 1777240444 | 13.89° C | 88% | 1019 hPa | 0 mm | - | 68 W/m² | - |
| 1777239925 | 13.89° C | 88% | 1019 hPa | 0 mm | - | 89 W/m² | - |
| 1777236844 | 13.33° C | 89% | 1018.4 hPa | 0 mm | - | 202 W/m² | - |
| 1777236304 | 12.78° C | 91% | 1018.4 hPa | 0 mm | - | 148 W/m² | - |
| 1777235764 | 12.78° C | 91% | 1018.5 hPa | 0 mm | - | 74 W/m² | - |
| 1777233604 | 12.78° C | 93% | 1018.2 hPa | 0 mm | - | 80 W/m² | - |
| 1777232164 | 12.22° C | 95% | 1018.6 hPa | 0 mm | - | 82 W/m² | - |
| 1777231624 | 11.67° C | 97% | 1018.6 hPa | 0 mm | - | 84 W/m² | - |
| 1777228564 | 11.67° C | 99% | 1018.6 hPa | 0 mm | - | 30 W/m² | - |
| 1777223344 | 11.67° C | 99% | 1018.6 hPa | 0 mm | - | 53 W/m² | - |
| 1777220305 | 11.67° C | 99% | 1018.1 hPa | 0 mm | - | 58 W/m² | - |
| 1777215604 | 11.67° C | 99% | 1017.5 hPa | 0 mm | - | 29 W/m² | - |
| 1777211104 | 12.22° C | 99% | 1016.8 hPa | 0 mm | - | 22 W/m² | - |
| 1777210564 | 12.22° C | 99% | 1016.7 hPa | 0 mm | - | 17 W/m² | - |
| 1777207504 | 12.78° C | 99% | 1016.4 hPa | 0 mm | - | 13 W/m² | - |
| 1777206445 | 13.33° C | 99% | 1016.3 hPa | 0 mm | - | 11 W/m² | - |
| 1777201204 | 13.89° C | 99% | 1014.6 hPa | 0 mm | - | 0 W/m² | - |
| 1777200844 | 13.89° C | 99% | 1014.4 hPa | 0 mm | - | 0 W/m² | - |
| 1777199764 | 13.89° C | 99% | 1014.5 hPa | 0 mm | - | 0 W/m² | - |
| 1777199224 | 13.89° C | 99% | 1014.2 hPa | 0 mm | - | 0 W/m² | - |
| 1777196725 | 13.89° C | 99% | 1014.1 hPa | 0 mm | - | 0 W/m² | - |
* Rain latest hour (hover to see other rain measurements)
** Current wind speed in m/s (hover to see current wind gust speed)